CW8468 Weather Reports


Display with metric or nautical units.
time (UTC)temp
F
wind
direction
speed
MPH
gust
MPH
rain 1hr
in
rain 24hr
in
rain mn
in
humidity
%
barometer
mb
20260831051519 82 218 1.0 3.0 0.00 0.01 0.00 77 1014.6
20260831051004 82 177 1.0 3.0 0.00 0.01 0.00 77 1014.6
20260831050503 82 152 1.0 3.0 0.00 0.01 0.00 77 1014.5
20260831050028 82 353 1.0 3.0 0.00 0.01 0.01 76 1014.5
20260831045004 82 165 1.0 2.0 0.00 0.01 0.01 76 1014.5
20260831044004 83 173 1.0 3.0 0.00 0.01 0.01 75 1014.4
20260831043503 83 166 1.0 4.0 0.00 0.01 0.01 75 1014.4
20260831043026 83 231 2.0 4.0 0.00 0.01 0.01 74 1014.5
20260831042503 83 157 1.0 6.0 0.00 0.01 0.01 74 1014.4
20260831042004 83 191 1.0 6.0 0.00 0.01 0.01 74 1014.4
20260831041518 83 182 1.0 5.0 0.00 0.01 0.01 74 1014.3
20260831041005 83 141 1.0 3.0 0.00 0.01 0.01 73 1014.3
20260831040503 83 187 1.0 3.0 0.00 0.01 0.01 73 1014.3
20260831040022 83 353 1.0 3.0 0.00 0.01 0.01 73 1014.2
20260831035502 83 162 0.0 3.0 0.00 0.01 0.01 73 1014.2
20260831035003 83 200 0.0 3.0 0.00 0.01 0.01 73 1014.2
20260831034517 83 174 0.0 2.0 0.00 0.01 0.01 72 1014.1
20260831034003 83 174 0.0 2.0 0.00 0.01 0.01 72 1014.0
20260831033502 83 172 0.0 2.0 0.00 0.01 0.01 72 1014.0
20260831033024 84 148 0.0 2.0 0.00 0.01 0.01 72 1014.0
20260831032502 84 165 0.0 2.0 0.00 0.01 0.01 71 1014.0
20260831032002 84 150 1.0 3.0 0.00 0.01 0.01 71 1013.9
20260831031517 84 135 1.0 3.0 0.00 0.01 0.01 71 1013.9
20260831031003 84 134 1.0 3.0 0.00 0.01 0.01 71 1013.9
20260831025504 85 146 1.0 3.0 0.00 0.01 0.01 69 1013.6
20260831025002 85 158 1.0 3.0 0.00 0.01 0.01 69 1013.5
20260831024003 85 154 2.0 6.0 0.00 0.01 0.01 68 1013.4
20260831023502 86 353 2.0 6.0 0.00 0.01 0.01 68 1013.3
20260831023023 86 195 2.0 5.0 0.00 0.01 0.01 67 1013.2
20260831022501 86 166 2.0 6.0 0.00 0.01 0.01 67 1013.2
20260831021517 86 119 2.0 5.0 0.00 0.01 0.01 66 1013.1
20260831021003 86 137 2.0 4.0 0.00 0.01 0.01 66 1013.0
20260831020502 86 125 2.0 5.0 0.00 0.01 0.01 66 1012.8
20260831020025 87 172 2.0 6.0 0.00 0.01 0.01 66 1012.8
20260831015502 87 153 2.0 6.0 0.00 0.01 0.01 65 1012.7
20260831015004 87 177 2.0 5.0 0.00 0.01 0.01 65 1012.6
20260831014518 87 153 2.0 6.0 0.00 0.01 0.01 65 1012.7
20260831014003 87 154 2.0 8.0 0.00 0.01 0.01 65 1012.6
20260831013502 87 123 3.0 8.0 0.00 0.01 0.01 64 1012.7
20260831013025 87 353 3.0 7.0 0.00 0.01 0.01 64 1012.7
20260831012502 87 353 2.0 6.0 0.00 0.01 0.01 64 1012.7
20260831012003 87 135 2.0 5.0 0.00 0.01 0.01 65 1012.6
20260831011516 87 141 1.0 4.0 0.00 0.01 0.01 64 1012.5
20260831011003 87 191 2.0 6.0 0.00 0.01 0.01 64 1012.5
20260831010503 87 150 2.0 6.0 0.01 0.01 0.01 64 1012.5
20260831010025 87 86 2.0 4.0 0.01 0.01 0.01 64 1012.5
20260831005501 87 133 2.0 7.0 0.01 0.01 0.01 64 1012.5
20260831005002 87 151 2.0 7.0 0.01 0.01 0.01 65 1012.6
20260831004516 86 121 2.0 6.0 0.01 0.01 0.01 66 1012.5
20260831004002 86 353 2.0 6.0 0.01 0.01 0.01 67 1012.5
20260831003501 85 159 1.0 6.0 0.01 0.01 0.01 69 1012.4
20260831002501 84 143 1.0 2.0 0.01 0.01 0.01 74 1012.3
20260831002002 85 127 1.0 3.0 0.01 0.01 0.01 71 1012.3
20260831001516 87 2 3.0 8.0 0.01 0.01 0.01 67 1012.3
20260831001001 89 134 4.0 14.0 0.01 0.01 0.01 62 1012.3
20260831000501 94 89 4.0 14.0 0.00 0.00 0.00 52 1012.3
20260831000025 94 171 2.0 6.0 0.00 0.00 0.00 49 1012.1
20260830235002 95 182 2.0 9.0 0.00 0.00 0.00 47 1012.0
20260830234516 95 353 4.0 9.0 0.00 0.00 0.00 47 1012.0
20260830233023 96 133 3.0 9.0 0.00 0.00 0.00 44 1011.9
20260830232501 96 173 3.0 9.0 0.00 0.00 0.00 44 1011.9
20260830232001 96 113 3.0 5.0 0.00 0.00 0.00 44 1011.9
20260830231516 96 110 3.0 5.0 0.00 0.00 0.00 42 1011.9
20260830231002 96 141 2.0 6.0 0.00 0.00 0.00 43 1012.0
20260830230501 96 353 2.0 6.0 0.00 0.00 0.00 42 1011.9
20260830230023 96 160 2.0 6.0 0.00 0.00 0.00 42 1011.9
20260830225502 96 24 3.0 8.0 0.00 0.00 0.00 42 1011.9
20260830225002 96 50 3.0 9.0 0.00 0.00 0.00 43 1012.0
20260830224516 97 133 2.0 5.0 0.00 0.00 0.00 41 1012.0
20260830224001 97 115 3.0 10.0 0.00 0.00 0.00 43 1012.0
20260830223021 98 150 3.0 8.0 0.00 0.00 0.00 41 1012.1
20260830222502 97 100 3.0 8.0 0.00 0.00 0.00 43 1012.1
20260830222002 98 353 2.0 6.0 0.00 0.00 0.00 42 1012.1
20260830221516 98 171 2.0 6.0 0.00 0.00 0.00 41 1012.0
20260830220026 97 67 1.0 5.0 0.00 0.00 0.00 45 1012.2
20260830215503 95 220 2.0 5.0 0.00 0.00 0.00 43 1012.2
20260830214517 96 97 3.0 8.0 0.00 0.00 0.00 43 1012.3
20260830213501 99 183 3.0 11.0 0.00 0.00 0.00 39 1012.3
20260830213028 99 55 2.0 7.0 0.00 0.00 0.00 41 1012.3
20260830212502 98 145 3.0 8.0 0.00 0.00 0.00 40 1012.4
20260830211519 99 168 3.0 8.0 0.00 0.00 0.00 42 1012.6
20260830211003 97 154 2.0 9.0 0.00 0.00 0.00 43 1012.6
20260830210502 98 353 2.0 7.0 0.00 0.00 0.00 41 1012.7
20260830210024 99 245 2.0 7.0 0.00 0.00 0.00 43 1012.8
20260830205501 99 173 2.0 7.0 0.00 0.00 0.00 41 1012.9
20260830205001 99 150 2.0 7.0 0.00 0.00 0.00 41 1012.9
20260830204516 98 77 3.0 8.0 0.00 0.00 0.00 42 1013.0
20260830204002 98 165 3.0 8.0 0.00 0.00 0.00 42 1013.1
20260830203501 97 112 3.0 6.0 0.00 0.00 0.00 43 1013.1
20260830203024 98 293 3.0 7.0 0.00 0.00 0.00 41 1013.1
20260830202501 98 195 3.0 8.0 0.00 0.00 0.00 43 1013.3
20260830201516 99 235 2.0 6.0 0.00 0.00 0.00 42 1013.4
20260830201002 100 179 2.0 5.0 0.00 0.00 0.00 43 1013.5
20260830200022 99 66 2.0 7.0 0.00 0.00 0.00 44 1013.7
20260830195501 98 336 2.0 5.0 0.00 0.00 0.00 43 1013.7
20260830195002 97 118 1.0 6.0 0.00 0.00 0.00 48 1013.9
20260830194516 96 158 1.0 5.0 0.00 0.00 0.00 47 1014.0
20260830194001 96 2 2.0 5.0 0.00 0.00 0.00 49 1014.0
20260830193500 96 173 2.0 5.0 0.00 0.00 0.00 49 1014.1
20260830193025 95 343 2.0 4.0 0.00 0.00 0.00 51 1014.3
20260830192501 96 124 1.0 4.0 0.00 0.00 0.00 49 1014.3
20260830191516 97 161 2.0 8.0 0.00 0.00 0.00 50 1014.5
20260830191002 96 241 3.0 8.0 0.00 0.00 0.00 48 1014.6
20260830190501 96 235 2.0 7.0 0.00 0.00 0.00 47 1014.7
20260830190027 96 214 2.0 7.0 0.00 0.00 0.00 49 1014.7
20260830185002 96 266 2.0 7.0 0.00 0.00 0.00 51 1014.7
20260830184515 96 270 2.0 6.0 0.00 0.00 0.00 49 1014.8
20260830184001 96 102 1.0 4.0 0.00 0.00 0.00 48 1014.9
20260830183501 96 305 2.0 5.0 0.00 0.00 0.00 48 1015.0
20260830183024 96 353 2.0 6.0 0.00 0.00 0.00 52 1015.1
20260830181516 94 178 1.0 4.0 0.00 0.00 0.00 53 1015.4
20260830180501 94 358 2.0 5.0 0.00 0.00 0.00 54 1015.6
20260830180027 92 269 2.0 5.0 0.00 0.00 0.00 53 1015.7
20260830175502 93 150 2.0 5.0 0.00 0.00 0.00 52 1015.7
20260830174002 93 202 1.0 3.0 0.00 0.00 0.00 55 1015.9
20260830173500 93 214 1.0 4.0 0.00 0.00 0.00 58 1016.0
20260830173027 93 326 2.0 4.0 0.00 0.00 0.00 55 1016.1
20260830172501 93 313 1.0 4.0 0.00 0.00 0.00 57 1016.1
20260830172001 92 200 1.0 3.0 0.00 0.00 0.00 55 1016.1
20260830171515 92 176 1.0 3.0 0.00 0.00 0.00 55 1016.2
20260830171002 91 90 1.0 3.0 0.00 0.00 0.00 57 1016.2
20260830170500 90 104 2.0 5.0 0.00 0.00 0.00 57 1016.2
20260830170025 90 231 2.0 5.0 0.00 0.00 0.00 54 1016.2
20260830165500 91 155 2.0 4.0 0.00 0.00 0.00 56 1016.2
20260830165000 91 156 2.0 5.0 0.00 0.00 0.00 57 1016.3
20260830164515 90 166 2.0 5.0 0.00 0.00 0.00 59 1016.4
20260830163023 90 154 2.0 5.0 0.00 0.00 0.00 59 1016.5
20260830162001 89 353 2.0 4.0 0.00 0.00 0.00 58 1016.4
20260830161001 88 247 1.0 5.0 0.00 0.00 0.00 63 1016.5
20260830160500 88 171 1.0 5.0 0.00 0.00 0.00 64 1016.5
20260830155500 88 344 2.0 4.0 0.00 0.00 0.00 64 1016.5
20260830155000 88 243 2.0 4.0 0.00 0.00 0.00 65 1016.6
20260830154516 87 287 1.0 4.0 0.00 0.00 0.00 67 1016.6
20260830154002 87 204 2.0 4.0 0.00 0.00 0.00 67 1016.5
20260830153500 86 240 1.0 4.0 0.00 0.00 0.00 70 1016.5
20260830152500 85 277 1.0 3.0 0.00 0.00 0.00 74 1016.5
20260830152001 84 175 1.0 3.0 0.00 0.00 0.00 74 1016.4
20260830151000 84 176 1.0 5.0 0.00 0.00 0.00 76 1016.4
20260830150459 84 264 1.0 5.0 0.00 0.00 0.00 76 1016.4
20260830150021 83 247 1.0 2.0 0.00 0.00 0.00 76 1016.5
20260830145459 83 274 1.0 4.0 0.00 0.00 0.00 77 1016.5
20260830144959 83 167 1.0 4.0 0.00 0.00 0.00 77 1016.4
20260830144514 84 193 1.0 3.0 0.00 0.00 0.00 77 1016.4
20260830143959 83 112 1.0 5.0 0.00 0.00 0.00 77 1016.4
20260830143458 84 231 1.0 5.0 0.00 0.00 0.00 79 1016.4
20260830143023 83 200 1.0 3.0 0.00 0.00 0.00 79 1016.4
20260830142458 83 179 1.0 3.0 0.00 0.00 0.00 80 1016.4
20260830141959 82 235 1.0 3.0 0.00 0.00 0.00 81 1016.5
20260830141514 82 145 1.0 4.0 0.00 0.00 0.00 81 1016.5
20260830141000 82 250 1.0 4.0 0.00 0.00 0.00 82 1016.5
20260830140458 82 177 1.0 3.0 0.00 0.00 0.00 82 1016.5
20260830140023 82 175 1.0 3.0 0.00 0.00 0.00 83 1016.5
20260830135500 81 217 0.0 3.0 0.00 0.00 0.00 84 1016.5
20260830135000 81 163 0.0 2.0 0.00 0.00 0.00 84 1016.4
20260830134514 80 163 0.0 2.0 0.00 0.00 0.00 85 1016.3
20260830134001 80 143 0.0 2.0 0.00 0.00 0.00 86 1016.2
20260830133500 80 196 0.0 2.0 0.00 0.00 0.00 87 1016.2
20260830133023 79 188 0.0 1.0 0.00 0.00 0.00 87 1016.1
20260830132001 79 188 0.0 1.0 0.00 0.00 0.00 89 1016.1
20260830131515 78 188 0.0 2.0 0.00 0.00 0.00 89 1016.2
20260830131002 78 188 0.0 2.0 0.00 0.00 0.00 90 1016.1
20260830130500 77 188 0.0 1.0 0.00 0.00 0.00 90 1016.1
20260830130022 77 188 0.0 0.0 0.00 0.00 0.00 90 1016.0
20260830125000 76 188 0.0 0.0 0.00 0.00 0.00 90 1015.9
20260830124513 76 188 0.0 0.0 0.00 0.00 0.00 90 1015.9
20260830124000 76 188 0.0 0.0 0.00 0.00 0.00 90 1015.8
20260830123458 76 188 0.0 0.0 0.00 0.00 0.00 90 1015.8
20260830123024 76 188 0.0 0.0 0.00 0.00 0.00 90 1015.8
20260830122459 75 188 0.0 0.0 0.00 0.00 0.00 90 1015.7
20260830122000 75 188 0.0 0.0 0.00 0.00 0.00 90 1015.7
20260830121513 75 188 0.0 0.0 0.00 0.00 0.00 90 1015.7
20260830120959 75 188 0.0 0.0 0.00 0.00 0.00 90 1015.7
20260830120458 75 188 0.0 0.0 0.00 0.00 0.00 90 1015.7
20260830120022 75 188 0.0 0.0 0.00 0.00 0.00 90 1015.6
20260830115500 75 188 0.0 0.0 0.00 0.00 0.00 90 1015.5
20260830115001 75 188 0.0 0.0 0.00 0.00 0.00 90 1015.5
20260830114001 75 188 0.0 0.0 0.00 0.00 0.00 89 1015.5
20260830113500 76 188 0.0 0.0 0.00 0.00 0.00 90 1015.5
20260830113023 75 188 0.0 0.0 0.00 0.00 0.00 89 1015.5
20260830112501 76 188 0.0 0.0 0.00 0.00 0.00 89 1015.5
20260830110459 76 188 0.0 0.0 0.00 0.00 0.00 89 1015.3
20260830110025 76 188 0.0 0.0 0.00 0.00 0.00 89 1015.3
20260830105459 76 188 0.0 0.0 0.00 0.00 0.00 89 1015.3
20260830104959 76 188 0.0 0.0 0.00 0.00 0.00 89 1015.2
20260830103959 76 188 0.0 0.0 0.00 0.00 0.00 89 1015.2
20260830103458 76 188 0.0 0.0 0.00 0.00 0.00 89 1015.1
20260830103022 76 188 0.0 0.0 0.00 0.00 0.00 89 1015.0
20260830102458 76 188 0.0 0.0 0.00 0.00 0.00 89 1015.0
20260830101959 76 188 0.0 0.0 0.00 0.00 0.00 88 1015.0
20260830101513 76 188 0.0 0.0 0.00 0.00 0.00 88 1014.9
20260830100959 76 188 0.0 0.0 0.00 0.00 0.00 88 1014.9
20260830100458 76 188 0.0 0.0 0.00 0.00 0.00 88 1014.9
20260830100024 77 188 0.0 0.0 0.00 0.00 0.00 88 1014.7
20260830095458 76 188 0.0 0.0 0.00 0.00 0.00 88 1014.7
20260830094959 76 188 0.0 0.0 0.00 0.00 0.00 88 1014.7
20260830094515 76 188 0.0 0.0 0.00 0.00 0.00 88 1014.8
20260830093959 77 188 0.0 0.0 0.00 0.00 0.00 88 1014.8
20260830093458 77 188 0.0 0.0 0.00 0.00 0.00 88 1014.7
20260830092459 77 188 0.0 0.0 0.00 0.00 0.00 88 1014.8
20260830091959 77 188 0.0 0.0 0.00 0.00 0.00 87 1014.7
20260830090959 77 188 0.0 0.0 0.00 0.00 0.00 87 1014.8
20260830090459 77 188 0.0 0.0 0.00 0.00 0.00 87 1014.8
20260830090019 77 188 0.0 0.0 0.00 0.00 0.00 87 1014.9
20260830085459 77 188 0.0 0.0 0.00 0.00 0.00 87 1014.9
20260830084513 77 188 0.0 0.0 0.00 0.00 0.00 87 1014.9
20260830084000 77 188 0.0 1.0 0.00 0.00 0.00 86 1014.9
20260830083458 77 188 0.0 1.0 0.00 0.00 0.00 86 1014.9
20260830083018 77 188 0.0 1.0 0.00 0.00 0.00 86 1015.0
20260830082458 78 188 0.0 1.0 0.00 0.00 0.00 86 1015.0
20260830081958 78 188 0.0 0.0 0.00 0.00 0.00 86 1014.9
20260830081514 78 188 0.0 0.0 0.00 0.00 0.00 86 1015.0
20260830081000 78 188 0.0 0.0 0.00 0.00 0.00 86 1015.0
20260830080500 78 188 0.0 0.0 0.00 0.00 0.00 85 1015.0
20260830080023 78 188 0.0 0.0 0.00 0.00 0.00 85 1015.1
20260830075458 78 188 0.0 1.0 0.00 0.00 0.00 85 1015.1
20260830075000 78 188 0.0 1.0 0.00 0.00 0.00 85 1015.1
20260830074513 79 188 0.0 1.0 0.00 0.00 0.00 84 1015.0
20260830073959 79 188 0.0 1.0 0.00 0.00 0.00 84 1015.2
20260830073022 79 175 0.0 1.0 0.00 0.00 0.00 84 1015.3
20260830072459 79 175 0.0 1.0 0.00 0.00 0.00 84 1015.3
20260830071959 79 175 0.0 1.0 0.00 0.00 0.00 84 1015.3
20260830071515 79 175 0.0 1.0 0.00 0.00 0.00 83 1015.3
20260830070959 79 175 0.0 1.0 0.00 0.00 0.00 83 1015.2
20260830070458 79 175 0.0 1.0 0.00 0.00 0.00 83 1015.3
20260830070021 79 175 0.0 1.0 0.00 0.00 0.00 83 1015.2
20260830065458 80 175 0.0 1.0 0.00 0.00 0.00 83 1015.2
20260830064958 80 175 0.0 1.0 0.00 0.00 0.00 82 1015.2
20260830064512 80 193 0.0 2.0 0.00 0.00 0.00 82 1015.2
20260830063958 80 170 0.0 2.0 0.00 0.00 0.00 82 1015.2
20260830063458 80 162 0.0 1.0 0.00 0.00 0.00 82 1015.2
20260830063021 80 179 0.0 1.0 0.00 0.00 0.00 82 1015.2
20260830062458 80 183 0.0 2.0 0.00 0.00 0.00 82 1015.2
20260830060958 81 161 0.0 3.0 0.00 0.00 0.00 80 1015.2
20260830060458 81 186 0.0 1.0 0.00 0.00 0.00 80 1015.2
20260830060022 81 150 0.0 2.0 0.00 0.00 0.00 80 1015.2
20260830055457 81 177 1.0 2.0 0.00 0.00 0.00 80 1015.2
20260830054958 81 162 1.0 2.0 0.00 0.00 0.00 80 1015.2
20260830054513 81 191 1.0 4.0 0.00 0.00 0.00 79 1015.2
20260830053958 81 183 1.0 6.0 0.00 0.00 0.00 79 1015.1
20260830053457 81 171 1.0 6.0 0.00 0.00 0.00 79 1015.1
20260830053020 81 180 1.0 3.0 0.00 0.00 0.00 79 1015.1
20260830051959 81 175 2.0 6.0 0.00 0.00 0.00 78 1015.2